TIME,DELAY(SENSOR),PRES,T(CTD),SAL,OXYGEN,RAWTEMP,T(OPTODE),TCPHASE,FLUOR,BETA(BETA700),BETA(BETA412),BETA(BETA440),CDOM,C(CSC),ED(ED411.90),ED(ED443.80),ED(ED489.40),ED(ED554.70),LU(LU412.20),LU(LU443.80),LU(LU489.40),LU(LU555.00),COMP,TILTX,TILTX(TILTY),CHECK
1348326958,5804,497.2900085449219000,17.4486999511718750,36.4533996582031250,229.5222015380859400,173.3377075195312500,17.4522991180419920,31.2459907531738280,51,100,96,77,61,13235,2146955858,2147514770,2147267867,2147466459,2147087067,2146957229,2147654811,2147115538,1210,-1,8,18908
1348327079,5805,486.3800048828125000,17.5137004852294920,36.4668006896972660,230.7456054687500000,171.1988983154297000,17.5168304443359380,31.1562595367431640,50,100,96,77,62,13236,2146955730,2147516288,2147266916,2147464850,2147086811,2146956534,2147652900,2147120996,736,-1,8,62784
1348327203,5806,475.5000000000000000,17.5837993621826170,36.4808998107910160,232.1269989013672000,169.0966949462890600,17.5802707672119140,31.0597305297851560,50,100,97,77,62,13235,2146954304,2147516525,2147265828,2147463881,2147088365,2146962020,2147656841,2147121188,3414,-2,8,18158
1348327335,5804,464.0599975585937500,17.6525993347167970,36.4916992187500000,232.2810974121093800,166.8088989257812500,17.6493091583251950,31.0215797424316400,50,99,97,76,61,13235,2146955657,2147510774,2147266002,2147463149,2147088594,2146961060,2147654016,2147116013,2923,-1,8,6479
1348327459,5808,453.2099914550781000,17.7292003631591800,36.5051002502441400,232.8354034423828000,164.3744964599609400,17.7227802276611330,30.9615402221679700,51,101,96,78,61,13232,2146954048,2147512283,2147266569,2147462784,2147088566,2146962102,2147657014,2147118198,2753,-1,8,3548
1348327580,5806,442.7699890136719000,17.7987995147705080,36.5181999206543000,234.0211944580078000,161.9882965087890600,17.7948093414306640,30.8715705871582030,51,103,95,76,61,13235,2146955410,2147514459,2147263250,2147460233,2147090825,2146958089,2147653366,2147119524,2153,-1,8,34679
1348327712,5804,431.3099975585937500,17.8586997985839840,36.5276985168457000,234.8892059326172000,159.8372955322265600,17.8597507476806640,30.8007507324218750,50,102,97,78,61,13234,2146956105,2147510811,2147264950,2147461202,2147088036,2146959899,2147653037,2147121709,1660,-1,8,32190
1348327835,5804,420.6199951171875000,17.9314002990722660,36.5409011840820300,236.0059051513672000,157.6472930908203000,17.9258708953857420,30.7175903320312500,50,101,97,78,62,13233,2146955748,2147513408,2147262948,2147461668,2147089170,2146956754,2147650825,2147122614,1578,-1,8,43452
1348327967,5805,409.1799926757812500,17.9834003448486330,36.5489997863769500,236.1654052734375000,155.8677978515625000,17.9796104431152340,30.6861305236816400,50,100,96,78,61,13234,2146954349,2147512091,2147263945,2147462454,2147088813,2146956790,2147654025,2147121590,921,-1,8,55263
1348328091,5806,398.2900085449219000,18.0217990875244140,36.5550994873046900,236.0283050537109400,154.5836944580078000,18.0183792114257800,30.6755409240722660,50,101,97,77,61,13231,2146953837,2147509376,2147266797,2147458861,2147087771,2146957961,2147655661,2147119478,3479,-1,8,34654
1348328212,5806,387.5000000000000000,18.0655994415283200,36.5609016418457000,236.0821075439453000,153.1701965332031200,18.0610809326171880,30.6540508270263670,50,102,96,78,62,13231,2146954715,2147513545,2147263945,2147459428,2147085705,2146963401,2147657188,2147123163,3530,-1,8,11944
1348328333,5804,376.4899902343750000,18.1033992767334000,36.5660018920898440,235.7870025634765600,151.8858032226562500,18.0998706817626950,30.6508598327636720,51,102,95,78,61,13232,2146956882,2147513728,2147263332,2147462116,2147086418,2146960009,2147654171,2147117942,2960,-2,9,288
1348328456,5804,365.3099975585937500,18.1662006378173830,36.5746994018554700,235.4317932128906200,149.8907012939453000,18.1601390838623050,30.6416397094726560,51,101,96,77,61,13231,2146954816,2147514496,2147264859,2147461705,2147088292,2146965293,2147654080,2147128585,2452,-1,8,36480
1348328577,5809,354.4100036621094000,18.2063007354736330,36.5789985656738300,235.1217956542968800,148.5099945068359400,18.2018508911132800,30.6380805969238280,50,100,97,77,60,13229,2146956800,2147516278,2147265024,2147460763,2147087835,2146960219,2147652041,2147127012,1906,-2,8,51164
1348328701,5806,343.3200073242187500,18.2565994262695300,36.5826988220214840,234.3544006347656200,146.8383026123047000,18.2523708343505860,30.6526603698730470,51,101,96,79,61,13231,2146954340,2147512676,2147266139,2147458541,2147090560,2146960274,2147657316,2147125906,1563,-1,9,49898
1348328822,5802,332.5599975585937500,18.3041000366210940,36.5884017944335940,233.6566009521484400,145.0525054931640600,18.3063297271728500,30.6627006530761720,50,101,97,79,62,13227,2146954148,2147514560,2147263378,2147457353,2147086976,2146962011,2147657490,2147117412,1276,-1,9,15189
1348328954,5807,321.0599975585937500,18.3836002349853500,36.5950012207031250,232.5413970947265600,142.6268005371093800,18.3796405792236330,30.6842899322509770,50,101,96,78,62,13228,2146955684,2147513206,2147262674,2147459894,2147085339,2146964772,2147657545,2147122377,738,-1,9,9279
1348329077,5805,310.7200012207031000,18.4381999969482420,36.5997009277343750,231.5373992919922000,140.8213043212890600,18.4342193603515620,30.7092094421386720,50,106,95,79,61,13224,2146954230,2147515081,2147263899,2147455469,2147085760,2146965293,2147659876,2147125193,472,-1,8,57447
1348329220,5807,299.1400146484375000,18.4820995330810550,36.6025009155273440,230.5821075439453000,139.3672943115234400,18.4781703948974600,30.7365703582763670,50,103,96,78,62,13227,2146954029,2147514651,2147265078,2147456338,2147086902,2146968118,2147665901,2147122907,454,-1,8,64837
1348329355,5804,288.8099975585937500,18.5524005889892580,36.6054992675781250,229.0050048828125000,136.6130065917968800,18.5614490509033200,30.7776699066162100,50,104,97,79,61,13224,2146953325,2147515538,2147264027,2147458422,2147085997,2146970752,2147671652,2147126134,3482,-1,9,51325
1348329509,5805,277.5799865722656000,18.6369991302490230,36.6077003479003900,227.6515960693359400,134.0850067138672000,18.6378993988037100,30.8110008239746100,50,100,97,78,61,13228,2146954349,2147512667,2147263195,2147456246,2147085531,2146971922,2147673709,2147127762,3323,-1,8,27870
1348329675,5804,264.5299987792969000,18.8491001129150400,36.6082992553710940,228.6802062988281200,127.2777023315429700,18.8438491821289060,30.6694107055664060,50,100,96,78,61,13230,2146954660,2147510518,2147262043,2147457728,2147079497,2146980973,2147688841,2147127872,2828,-1,8,62351
1348329796,5803,253.1699981689453000,18.9647998809814450,36.6063995361328100,230.4425964355468800,123.3413009643554700,18.9629898071289060,30.5304393768310550,51,102,95,78,61,13229,2146953618,2147514496,2147264868,2147454756,2147087360,2146987145,2147705938,2147131812,2492,-2,8,15631
1348329920,5802,241.7599945068359400,19.0848007202148440,36.5959014892578100,234.9671020507812500,119.4396972656250000,19.0811290740966800,30.2604999542236330,50,99,97,78,61,13227,2146955017,2147513444,2147265490,2147455625,2147084242,2147004242,2147724891,2147129846,1332,-1,8,62168
1348330030,5807,231.6300048828125000,19.1459999084472660,36.5842018127441400,240.6031036376953000,117.4289016723632800,19.1420192718505860,29.9687900543212900,51,101,97,77,60,13229,2146953920,2147511296,2147267584,2147454144,2147090742,2147017069,2147752064,2147129819,1407,-2,9,39263
1348330151,5806,220.5899963378906200,19.2397003173828120,36.5877990722656250,244.6732025146484400,114.1304016113281200,19.2419490814209000,29.7390003204345700,52,101,97,77,60,13222,2146952374,2147516214,2147266706,2147454866,2147090322,2147040576,2147790436,2147134034,1303,-2,9,33123
1348330275,5807,209.4799957275390600,19.2987003326416000,36.5826988220214840,248.7884979248047000,112.3945007324218800,19.2945499420166000,29.5314407348632800,51,103,97,78,60,13228,2146954413,2147516534,2147271451,2147453449,2147090596,2147076644,2147843574,2147139382,883,-2,8,65060
1348330396,5806,198.6999969482422000,19.3342990875244140,36.5805015563964840,250.8582000732422000,111.1809005737304700,19.3313293457031250,29.4241008758544920,55,103,97,78,60,13226,2146953371,2147517842,2147273728,2147454555,2147101293,2147124096,2147916150,2147145344,667,-2,8,24364
1348330451,5806,193.9100036621093800,19.3544998168945300,36.5805015563964840,250.3377990722656200,110.5618972778320300,19.3500900268554700,29.4389305114746100,56,103,95,77,58,13227,2146958784,2147522880,2147272420,2147455835,2147098596,2147141659,2147946898,2147145673,218,-1,9,5290
1348330506,5807,189.1199951171875000,19.3658008575439450,36.5759010314941400,250.6101989746093800,110.1945037841796900,19.3612194061279300,29.4222297668457030,57,103,96,78,59,13226,2146956800,2147523821,2147276745,2147455579,2147106560,2147172507,2147992256,2147146788,3575,-2,8,7364
1348330580,5806,182.9100036621093800,19.3812999725341800,36.5740013122558600,250.8307037353515600,109.7007980346679700,19.3761806488037100,29.4061393737792970,62,105,98,79,60,13219,2146957787,2147522880,2147284260,2147454976,2147117650,2147216667,2148058011,2147150400,3364,-2,9,37710
1348330635,5805,178.6399993896484400,19.4011993408203120,36.5765991210937500,250.9813995361328000,108.9340972900390600,19.3994293212890620,29.3896999359130860,65,105,97,79,58,13221,2146957001,2147525138,2147279113,2147454491,2147128749,2147250340,2148108800,2147153033,3126,-2,8,57691
1348330690,5806,174.4199981689453000,19.4430007934570300,36.5821990966796900,249.9149017333984400,107.3744964599609400,19.4467105865478500,29.4165897369384770,68,106,96,78,59,13210,2146955282,2147524352,2147280374,2147453778,2147133732,2147298752,2148167323,2147158226,2967,-2,9,11693
1348330745,5807,170.2700042724609400,19.5063991546630860,36.5914001464843750,248.0052947998047000,105.3460006713867200,19.5082092285156250,29.4751091003417970,69,107,97,78,60,13212,2146958427,2147525732,2147284342,2147454153,2147146331,2147342491,2148231798,2147161389,2648,-2,9,9727
1348330800,5805,166.2500000000000000,19.5666007995605470,36.5956001281738300,247.5305938720703000,103.6136016845703100,19.5607490539550780,29.4739494323730470,74,107,96,78,61,13210,2146958592,2147525897,2147285440,2147453394,2147156909,2147389056,2148307684,2147169270,2469,-2,9,47044
1348330855,5804,162.2899932861328000,19.5834007263183600,36.5945014953613300,248.6855010986328000,102.9774017333984400,19.5800495147705080,29.4143791198730470,77,107,96,78,61,13210,2146956964,2147529353,2147293046,2147453193,2147171456,2147442843,2148382509,2147173211,2552,-2,9,7979
1348330933,5803,157.2500000000000000,19.6294994354248050,36.5975990295410160,250.3605041503906200,101.4000015258789000,19.6278991699218750,29.3201103210449220,79,108,97,80,60,13204,2146958372,2147535314,2147297462,2147451474,2147194578,2147536740,2148510098,2147182637,2300,-2,9,42734
1348330999,5804,153.5599975585937500,19.6847991943359380,36.6044998168945300,250.1994934082031200,99.7388763427734400,19.6783008575439450,29.3058204650878900,83,108,98,80,59,13207,2146960822,2147536493,2147298587,2147452690,2147220333,2147617965,2148611684,2147190171,2032,-2,9,10695
1348331076,5807,149.2200012207031200,19.7101001739501950,36.6012992858886700,251.9665985107422000,98.7520675659179700,19.7082405090332030,29.2156791687011720,81,107,99,78,61,13200,2146959405,2147541266,2147306185,2147452827,2147269677,2147736722,2148773220,2147204397,1771,-2,9,18225
1348331142,5809,145.5099945068359400,19.7712001800537100,36.6081008911132800,252.7451934814453000,96.8371429443359400,19.7663593292236330,29.1570796966552730,87,109,97,79,61,13199,2146966061,2147547026,2147316443,2147456265,2147289892,2147847908,2148918637,2147215003,1721,-2,9,51536
1348331222,5805,141.0200042724609400,19.8474006652832030,36.6080017089843750,254.0081939697265600,94.3714675903320300,19.8412094116210940,29.0708408355712900,89,122,99,79,62,13193,2146966482,2147551030,2147325266,2147450450,2147356644,2148019108,2149138934,2147232502,1432,-2,9,4466
1348331288,5805,137.4700012207031200,19.9347000122070300,36.6114006042480500,256.7243957519531000,91.8814010620117200,19.9168205261230470,28.9224205017089840,99,112,98,78,61,13192,2146970614,2147556845,2147334902,2147450294,2147429385,2148180461,2149335981,2147246473,1429,-2,9,23561
1348331365,5805,133.4600067138672000,20.0182991027832030,36.6109008789062500,261.0040893554687500,88.9537887573242200,20.0057392120361330,28.7046394348144530,93,113,99,80,61,13186,2146971574,2147563538,2147346669,2147455570,2147531812,2148414080,2149617782,2147271222,1529,-2,9,36639
1348331442,5803,129.6399993896484400,20.0597000122070300,36.5881004333496100,264.9017028808594000,87.1253128051757800,20.0613002777099600,28.5200996398925780,92,115,99,80,61,13178,2146979273,2147577526,2147357010,2147451684,2147654646,2148676278,2149918537,2147297910,1697,-2,9,5344
1348331533,5803,125.7300033569336000,20.3430995941162100,36.6273002624511700,264.4288940429687500,78.5789871215820300,20.3211193084716800,28.4319705963134770,119,123,100,81,60,13153,2146983158,2147587236,2147371730,2147454811,2147810422,2149013211,2150297161,2147330468,2137,-2,9,50296
1348331632,5804,122.1500015258789000,20.4563999176025400,36.6328010559082000,262.9090881347656000,74.3855514526367200,20.4486999511718750,28.4415493011474600,136,126,101,80,58,13128,2146992804,2147601874,2147392950,2147456457,2148023698,2149396690,2150719597,2147365485,2255,-2,9,3449
1348331764,5809,118.1299972534179700,20.5739994049072270,36.6366996765136700,266.0179138183594000,70.6173629760742200,20.5634098052978500,28.2671394348144530,146,122,99,81,59,13130,2147007177,2147625929,2147417883,2147456576,2148343122,2149939355,2151249828,2147417819,1832,-1,9,36889
1348331884,5805,113.3700027465820300,20.7544994354248050,36.6461982727050800,268.6188964843750000,64.4213562011718800,20.7521400451660160,28.0848102569580080,112,120,100,81,59,13133,2147032018,2147667437,2147477440,2147456896,2148954038,2151003812,2152362038,2147521115,1465,-2,9,13255
1348331961,5805,109.3899993896484400,20.8526992797851560,36.6511001586914060,271.7654113769531000,61.5601310729980500,20.8393497467041000,27.9236507415771500,109,119,99,81,57,13146,2147058386,2147711625,2147534336,2147456475,2149526875,2151950235,2153277074,2147609179,1297,-2,9,28363
1348332038,5808,105.8799972534179700,20.9864006042480470,36.6506996154785160,274.5690917968750000,57.0937690734863300,20.9755496978759770,27.7583904266357420,101,121,100,81,59,13145,2147093796,2147763145,2147623945,2147462528,2150200301,2153028041,2154261211,2147707410,728,-1,9,29475
1348332162,5807,101.9400024414062500,21.1408004760742200,36.6475982666015600,276.1260986328125000,52.0794105529785160,21.1285591125488280,27.6359004974365230,99,122,102,82,58,13134,2147143881,2147835538,2147690139,2147466514,2151235666,2154650889,2155673042,2147830765,335,-2,9,63822
1348332261,5806,99.4000015258789000,21.2429008483886720,36.6325988769531250,280.4271850585937500,48.6696014404296900,21.2326793670654300,27.4289608001709000,99,126,103,82,58,13118,2147176722,2147875090,2147693403,2147465270,2152050395,2155838875,2156625746,2147924800,3083,-1,9,64186
1348332360,5806,97.3899993896484400,21.4058990478515620,36.6477012634277340,281.7041931152344000,43.8025703430175800,21.3813800811767580,27.3209896087646500,96,125,101,82,58,13124,2147218066,2147934153,2147780150,2147467053,2152863232,2157037321,2157635922,2148022573,3578,-2,9,22914
1348332483,5808,95.0500030517578100,21.7357997894287100,36.6940994262695300,280.4436035156250000,32.7166290283203100,21.7205009460449220,27.2332592010498050,91,123,101,82,57,13124,2147285129,2148021421,2147880182,2147473874,2154137965,2158818093,2159069869,2148145536,337,-2,9,62308
1348332549,5807,92.8899993896484400,21.9288005828857420,36.7173004150390600,279.4880981445312500,26.6024494171142580,21.9077892303466800,27.1949405670166000,88,122,103,82,55,13125,2147337910,2148083017,2147910729,2147473810,2155364160,2160471515,2160298925,2148260278,3534,-1,9,60482
1348332604,5804,91.1200027465820300,21.9248008728027340,36.7025985717773440,280.1572875976562500,26.2634506225585940,21.9181804656982420,27.1654605865478500,86,124,102,81,58,13125,2147380772,2148123035,2147906688,2147473088,2156385910,2161854272,2161330203,2148352356,2837,-2,9,16565
1348332670,5805,89.0999984741211000,21.9654006958007800,36.6743011474609400,280.8736877441406000,25.0124702453613280,21.9565296173095700,27.1231498718261720,88,128,101,82,57,13119,2147441225,2148199533,2147962203,2147474861,2157880292,2163881270,2162935195,2148497865,2193,-2,9,5968
1348332770,5803,86.1600036621093800,22.1392993927001950,36.6665992736816400,280.7167968750000000,17.9272994995117200,22.1738491058349600,27.0429592132568360,84,126,104,83,57,13113,2147571657,2148347483,2148090148,2147479981,2160591515,2167357860,2165607222,2148738733,2395,-2,9,48898
1348332825,5802,84.2099990844726600,22.3402996063232420,36.6468009948730500,280.8046875000000000,13.0705995559692380,22.3229808807373050,26.9807796478271500,82,126,103,84,58,13114,2147659730,2148450834,2148178870,2147481554,2162637348,2170113984,2167616173,2148911789,2548,-2,9,2959
1348332880,5805,83.0500030517578100,22.4985008239746100,36.6543998718261700,280.5262145996094000,7.5554609298706055,22.4924793243408200,26.9243793487548830,84,128,105,83,56,13111,2147727606,2148532050,2148237805,2147483931,2164144137,2171910811,2168947190,2149040374,2169,-2,9,19875
1348332979,5804,81.6699981689453100,22.7406997680664060,36.6743011474609400,280.1557006835937500,0.2623915970325470,22.7168807983398440,26.8502807617187500,84,130,104,82,58,13101,2147755062,2148546852,2148247241,2147487771,2164553453,2171918784,2168612726,2149010797,1596,-1,9,46001
1348333124,5805,78.9599990844726600,23.0478992462158200,36.7099990844726560,280.0817871093750000,-10.0785703659057620,23.0355892181396500,26.7284393310546880,75,127,102,82,56,13105,2147461833,2148091867,2147765522,2147459584,2157744950,2160436745,2157600420,2148043949,1257,-2,9,28048
1348333179,5804,77.1399993896484400,23.4740009307861330,36.7622985839843750,279.4078063964844000,-23.1417903900146500,23.4391193389892580,26.5966205596923830,74,124,103,83,57,13109,2147724745,2148421019,2148072813,2147476004,2163764608,2168558701,2164087433,2148638802,1120,-1,9,35381
1348333256,5805,75.5599975585937500,23.5893993377685550,36.7756996154785160,279.5291137695312500,-27.4277896881103500,23.5717391967773440,26.5407009124755860,77,134,102,83,56,13094,2148344850,2149211483,2148910592,2147525549,2176329088,2185746212,2178168411,2149915812,872,-1,9,32880
1348333390,5807,72.8199996948242200,23.7936000823974600,36.7244987487793000,278.4218139648437500,-34.9959297180175800,23.8062191009521500,26.4915504455566400,69,128,103,83,56,13104,2147882678,2148537545,2148101065,2147476022,2167622838,2172044763,2165580315,2148753718,3539,-1,9,32815
1348333445,5808,71.1299972534179700,23.8743000030517580,36.7127990722656250,278.3497924804687500,-36.9817695617675800,23.8678092956542970,26.4704093933105470,71,129,104,85,54,13106,2148824923,2149716214,2149342966,2147558363,2186912950,2198085878,2186638811,2150674660,489,-2,9,36392
1348333544,5804,69.5000000000000000,23.9645004272460940,36.6721992492675800,277.0981140136719000,-40.2373695373535160,23.9688301086425780,26.4785804748535160,72,122,103,84,56,13102,2149120740,2150042880,2149576548,2147564626,2193067547,2204980178,2191290706,2151106651,942,-1,9,12330
1348333699,5805,67.0100021362304700,24.2560005187988280,36.5722007751464840,276.6755065917969000,-49.2561492919921900,24.2490692138671880,26.3866996765136720,71,127,103,84,53,13098,2149106752,2149934811,2149382902,2147553206,2192719250,2202615963,2187862125,2150770203,385,-1,9,3727
1348333776,5807,65.2099990844726600,24.3370990753173830,36.5656013488769500,275.8999938964844000,-51.2926292419433600,24.3124294281005860,26.3916893005371100,69,133,103,81,55,13096,2149532589,2150367058,2149623003,2147563638,2203684626,2216375323,2198303954,2151762185,3243,-2,9,14212
1348333864,5804,63.2799987792968750,24.4132995605468750,36.5555992126464840,275.2283020019531000,-54.1346893310546900,24.4008998870849600,26.3831996917724600,68,134,104,84,54,13091,2148348004,2148960621,2148334080,2147476068,2175557522,2178944685,2168596717,2148996982,2244,-2,9,27380
1348333974,5805,61.6800003051757800,24.5009994506835940,36.5490989685058600,274.3717956542969000,-56.9358215332031250,24.4881496429443360,26.3821907043457030,70,125,103,83,55,13093,2149979035,2150836955,2149972068,2147571026,2213398948,2226567862,2205425636,2152553974,1609,-2,9,50703
1348334107,5804,58.9900016784668000,24.6886997222900400,36.5474014282226560,273.1788940429687500,-62.9425010681152340,24.6754302978515620,26.3558101654052730,66,126,103,85,56,13086,2148894509,2149502107,2148736164,2147496036,2187733120,2192181741,2177549357,2149849481,1936,-2,9,52029
1348334173,5807,57.1199989318847660,25.2889995574951170,36.5457992553710940,271.0523071289062500,-76.9429779052734400,25.1130008697509770,26.2699508666992200,66,128,104,84,54,13085,2150274761,2150987035,2149944877,2147576694,2216374610,2225773065,2203779035,2152572964,1892,-1,9,53079
1348334362,5803,55.5400009155273440,25.5349998474121100,36.5741004943847660,268.0992126464844000,-90.3451232910156200,25.5332603454589840,26.2239208221435550,64,131,106,88,54,13086,2151046966,2151811574,2150662217,2147634413,2235730870,2249503204,2219462262,2154127076,3339,-2,10,28548
1348334610,5806,53.9199981689453100,26.0011997222900400,36.5988998413085940,263.9110107421875000,-105.0702972412109400,25.9966602325439450,26.2115592956542970,66,133,103,84,54,13075,2151351990,2152092059,2150826249,2147636361,2242203510,2255927085,2223213421,2154534829,3205,-1,9,11574
1348334737,5807,51.7999992370605500,26.2747993469238280,36.5699005126953100,261.3507080078125000,-113.8113021850586000,26.2725906372070300,26.2082004547119140,66,143,104,83,52,13074,2151904621,2152632256,2151346934,2147712585,2253735588,2267436681,2230616128,2155503981,94,-1,9,64038
1348335298,5807,49.8400001525878900,27.3882999420166000,36.4654006958007800,246.7790985107422000,-149.2496032714843800,27.3981704711914060,26.3776206970214840,63,130,105,84,54,13074,2150900626,2151406272,2150199552,2147630281,2233428388,2239662893,2208063753,2153287963,257,-2,9,22917
1348335893,5806,47.9099998474121100,27.7810993194580080,36.3786010742187500,234.6118011474609400,-161.5850067138672000,27.7926807403564450,26.7532691955566400,61,126,101,84,55,13099,2150541266,2150950125,2149684973,2147560164,2222353819,2225432493,2197787264,2152234130,1878,-2,9,51335
1348335974,5809,45.9300003051757800,27.8292999267578120,36.3619003295898440,233.4792022705078000,-162.8417053222656200,27.8329601287841800,26.7882995605468750,58,121,101,81,54,13115,2152883254,2153342180,2151579657,2147717001,2281375588,2291512649,2244978715,2157888813,1616,-1,9,46388
1348336055,5807,43.9199981689453100,27.7311000823974600,36.2691993713378900,233.4340972900390600,-160.1797943115234400,27.7476692199707030,26.8226890563964840,58,121,101,81,53,13112,2151092937,2151439588,2150170331,2147675053,2235271926,2237273984,2204502418,2153118317,723,-1,9,55792
1348336148,5807,41.7700004577636700,27.7227001190185550,36.2475013732910160,233.4508056640625000,-160.2575073242187500,27.7501602172851560,26.8211097717285160,58,121,99,82,55,13109,2155024329,2155377417,2153169051,2147944676,2327131538,2338941997,2273817389,2161206244,232,-2,9,4141
1348336215,5806,39.8499984741210940,27.7198009490966800,36.2246017456054700,233.5173950195312500,-159.9517059326172000,27.7403602600097660,26.8216991424560550,58,120,100,83,53,13108,2156272512,2156590198,2154234432,2148155684,2355600850,2368171702,2293034066,2164153618,355,-2,9,16394
1348336272,5806,37.3400001525878900,27.6966991424560550,36.2014007568359400,233.4010009765625000,-159.1643066406250000,27.7151508331298830,26.8365592956542970,57,118,100,83,54,13110,2152336137,2152462646,2150723492,2147723446,2260114441,2258806729,2215577115,2154845074,195,-2,9,25473